[[{"header":{"parameterUnit":"m.s-1","parameterCategory":1,"la1":30.2991,"la2":30.254,"lo1":-89.0895,"lo2":-89.0444,"dy":0.0017,"dx":0.0017,"nx":28,"ny":28,"refTime":"2025-08-28T09:00:00:Z","depth":0,"parameterNumber":2,"parameterNumberName":"U-component_of_WINDS"},"data":[0,0,0,0,0,0,0,0,0,0,0,0,0,0,0,0,0,0,0,0,0,0,0,0,0,0,0,0,0,0,0,0,0,0,0,0,0,0,0,0,0,0,0,0,0,0,0,0,0,0,0,0,0,0,0,0,0,0,-2.9331,-2.9332,0,-2.9399,-2.94,-2.9401,-2.9386,-2.9385,-2.9384,-2.9382,-2.9447,-2.945,-2.9453,0,0,0,0,0,0,0,0,0,0,0,0,0,-2.9183,-2.9186,-2.9331,-2.9332,-2.9333,-2.9399,-2.94,-2.9401,-2.9386,-2.9385,-2.9383,-2.9382,-2.9446,-2.9449,-2.9453,0,0,0,0,0,0,0,0,0,0,0,0,0,-2.9249,-2.9187,-2.9331,-2.9334,-2.9335,-2.9399,-2.94,-2.9401,-2.9387,-2.9385,-2.9383,-2.9381,-2.9445,-2.9449,-2.9453,-2.9518,0,0,-2.9467,-2.9469,0,0,0,0,0,0,0,0,-2.9245,-2.9254,-2.9333,-2.9334,-2.9335,-2.9382,-2.9372,-2.944,-2.9387,-2.9367,-2.9382,-2.938,-2.9427,-2.9432,-2.9449,-2.9521,-2.9524,-2.9467,-2.947,-2.9472,-2.9473,0,0,0,0,0,0,0,-2.924,-2.9251,-2.9358,-2.9334,-2.9335,-2.933,-2.9337,-2.9385,-2.9406,-2.9368,-2.9367,-2.9376,-2.9427,-2.9445,-2.9451,-2.9525,-2.9467,-2.9471,-2.9473,-2.9475,-2.9651,-2.9653,0,0,0,0,0,0,-2.9236,-2.9247,-2.9356,-2.936,-2.9285,-2.9334,-2.9342,-2.9369,-2.9406,-2.941,-2.9378,-2.9375,-2.9439,-2.9445,-2.9453,-2.9529,-2.9471,-2.9476,-2.9478,-2.9649,-2.9651,-2.9653,0,0,0,0,0,0,-2.9233,-2.9245,-2.9353,-2.9304,-2.9317,-2.9338,-2.9369,-2.9371,-2.9389,-2.9413,-2.9416,-2.9392,-2.9437,-2.9447,-2.9502,-2.9531,-2.9478,-2.9481,-2.9646,-2.9649,-2.9652,-2.9683,0,0,0,0,0,0,-2.9228,-2.9244,-2.9271,-2.9304,-2.932,-2.9403,-2.9371,-2.9374,-2.9398,-2.9395,-2.9428,-2.9431,-2.9437,-2.9495,-2.9506,-2.9536,-2.9485,-2.9644,-2.9648,-2.9651,-2.9679,-2.9687,-2.9693,0,0,0,0,0,-2.9223,-2.9276,-2.9272,-2.9285,-2.9353,-2.9404,-2.9413,-2.942,-2.94,-2.9425,-2.944,-2.943,-2.9527,-2.9501,-2.9513,-2.9545,-2.9642,-2.9646,-2.9651,-2.9676,-2.9685,-2.9693,0,0,0,0,0,0,-2.9243,-2.928,-2.9276,-2.9342,-2.937,-2.9402,-2.9434,-2.9429,-2.9462,-2.9458,-2.9464,-2.9471,-2.9527,-2.9542,-2.9513,-2.9608,-2.9581,-2.9588,-2.9596,-2.9605,-2.9612,-2.9606,-2.9488,0,0,0,0,0,-2.9255,-2.9296,-2.9326,-2.938,-2.9395,-2.9412,-2.9435,-2.9438,-2.9467,-2.9478,-2.9497,-2.9524,-2.956,-2.9584,-2.9618,-2.9682,-2.9688,-2.971,-2.9717,-2.9722,-2.9727,-2.976,-2.9769,-2.9669,-2.9668,-2.9668,0,0,-2.928,-2.9306,-2.9331,-2.9385,-2.9407,-2.9447,-2.9422,-2.9466,-2.9494,-2.9484,-2.9537,-2.9552,-2.9582,-2.9641,-2.9668,-2.9655,-2.9757,-2.9728,-2.9732,-2.9735,-2.9766,-2.9775,-2.9784,-2.9672,-2.9671,-2.9671,0,0,-2.9346,-2.9371,-2.9418,-2.9441,-2.9476,-2.9487,-2.9499,-2.9531,-2.9541,-2.9595,-2.9587,-2.9621,-2.9684,-2.9705,-2.9724,-2.9798,-2.9789,-2.981,-2.9844,-2.9876,-2.9884,-2.9891,-2.9915,-2.9923,-2.9815,-2.9815,-2.9815,0,-2.9372,-2.9434,-2.9443,-2.9487,-2.951,-2.9504,-2.9551,-2.9573,-2.9616,-2.9631,-2.9617,-2.9695,-2.9715,-2.9778,-2.9796,-2.9813,-2.9824,-2.9805,-2.9882,-2.9889,-2.9896,-2.9919,-2.9928,-2.9817,-2.9817,-2.9817,-2.9817,0,-2.9463,-2.9506,-2.954,-2.9583,-2.961,-2.9656,-2.967,-2.9696,-2.9696,-2.9708,-2.9762,-2.9786,-2.9825,-2.9841,-2.9841,-2.9903,-2.9894,-2.9881,-2.9853,-2.9907,-2.9929,-2.9938,-2.982,-2.982,-2.9819,-2.9819,0,0,-2.9542,-2.959,-2.9602,-2.9621,-2.9659,-2.9691,-2.9736,-2.9775,-2.9796,-2.9827,-2.9862,-2.9916,-2.9904,-2.9926,-2.9929,-2.9957,-3.0011,-2.994,-2.9941,-2.995,-3.0078,-3.0086,-3.0096,-3.0006,-3.0008,-3.0009,-3.0075,0,-2.9609,-2.9689,-2.9698,-2.9768,-2.9806,-2.9801,-2.9839,-2.9866,-2.9878,-2.9911,-2.9924,-2.9961,-2.9944,-2.9956,-2.9985,-2.9998,-3.0036,-2.9994,-3.0037,-3.0038,-3.0027,-3.0108,-3.0116,-3.0177,-3.0083,-3.0085,-3.0086,0,-2.9698,-2.9732,-2.9806,-2.9838,-2.9854,-2.9889,-2.9925,-2.9957,-2.9986,-2.9993,-3.0018,-3.0017,-3.006,-3.0033,-3.0091,-3.0063,-3.0081,-3.009,-3.0093,-3.0095,-3.0063,-3.0109,-3.0196,-3.0204,-3.01,-3.0099,-3.0098,0,-2.9744,-2.9809,-2.9862,-2.9878,-2.9917,-2.9941,-2.9958,-2.9986,-3.0009,-3.004,-3.0054,-3.009,-3.0109,-3.0135,-3.0143,-3.0123,-3.0201,-3.0175,-3.0206,-3.0205,-3.022,-3.0219,-3.0308,-3.0236,-3.0236,-3.0236,-3.0236,0,-2.9817,-2.9862,-2.9883,-2.9915,-2.9964,-2.9974,-3.0022,-3.0038,-3.0062,-3.0096,-3.0094,-3.0125,-3.0135,-3.0167,-3.0174,-3.022,-3.0229,-3.0234,-3.0234,-3.0233,-3.0232,-3.0243,-3.0238,-3.0238,-3.0238,-3.0237,-3.0237,0,-2.9877,-2.9893,-2.9949,-2.9982,-2.9991,-3.0026,-3.0053,-3.0083,-3.0096,-3.0137,-3.0148,-3.0167,-3.0204,-3.0216,-3.0261,-3.0265,-3.0318,-3.0317,-3.0309,-3.0308,-3.0337,-3.0333,-3.0435,-3.0448,-3.037,-3.037,-3.0371,0,-2.9921,-2.9956,-2.9992,-3.0015,-3.0034,-3.0071,-3.0094,-3.0105,-3.0129,-3.0165,-3.019,-3.0227,-3.0258,-3.0318,-3.0334,-3.0368,-3.0365,-3.0399,-3.037,-3.0367,-3.0363,-3.036,-3.0362,-3.0403,-3.0404,-3.0405,-3.0405,0,-2.9997,-3.0003,-3.0038,-3.0076,-3.0104,-3.0134,-3.0163,-3.0181,-3.0196,-3.0223,-3.0262,-3.0286,-3.0332,-3.0368,-3.0403,-3.0418,-3.0413,-3.0415,-3.0423,-3.042,-3.0413,-3.0415,-3.0321,-3.0412,-3.0411,-3.0411,-3.041,-3.041,-3.0048,-3.0078,-3.0109,-3.0147,-3.017,-3.0197,-3.0226,-3.0243,-3.0276,-3.0316,-3.032,-3.0362,-3.0388,-3.0435,-3.0452,-3.0483,-3.0473,-3.0486,-3.0489,-3.0491,-3.0492,-3.0411,-3.049,-3.049,-3.0489,-3.0489,-3.0489,0,-3.0121,-3.0141,-3.0177,-3.0217,-3.0247,-3.0243,-3.0274,-3.0299,-3.0336,-3.0363,-3.0393,-3.0437,-3.0472,-3.0492,-3.0527,-3.0548,-3.0546,-3.0556,-3.0553,-3.0557,-3.0501,-3.0489,-3.0557,-3.0557,-3.0557,-3.0557,-3.0557,-3.0557,-3.0163,-3.0213,-3.0223,-3.0283,-3.0302,-3.0344,-3.0362,-3.0386,-3.0407,-3.0457,-3.0487,-3.05,-3.0523,-3.056,-3.0591,-3.0596,-3.0607,-3.0618,-3.0621,-3.0568,-3.0561,-3.0554,-3.0543,-3.0621,-3.0621,-3.0675,-3.0675,-3.0675]},{"header":{"parameterUnit":"m.s-1","parameterCategory":1,"la1":30.2991,"la2":30.254,"lo1":-89.0895,"lo2":-89.0444,"dy":0.0017,"dx":0.0017,"nx":28,"ny":28,"refTime":"2025-08-28T09:00:00:Z","depth":0,"parameterNumber":3,"parameterNumberName":"V-component_of_WINDS"},"data":[0,0,0,0,0,0,0,0,0,0,0,0,0,0,0,0,0,0,0,0,0,0,0,0,0,0,0,0,0,0,0,0,0,0,0,0,0,0,0,0,0,0,0,0,0,0,0,0,0,0,0,0,0,0,0,0,0,0,-1.7056,-1.7057,0,-1.7089,-1.7089,-1.7089,-1.7095,-1.7095,-1.7095,-1.7095,-1.7126,-1.7127,-1.7128,0,0,0,0,0,0,0,0,0,0,0,0,0,-1.6997,-1.6998,-1.7056,-1.7057,-1.7057,-1.7088,-1.7089,-1.7089,-1.7095,-1.7095,-1.7095,-1.7095,-1.7126,-1.7127,-1.7128,0,0,0,0,0,0,0,0,0,0,0,0,0,-1.7026,-1.6999,-1.7056,-1.7064,-1.7065,-1.7088,-1.7089,-1.7089,-1.7096,-1.7095,-1.7095,-1.7094,-1.7125,-1.7127,-1.7129,-1.7146,0,0,-1.7134,-1.7134,0,0,0,0,0,0,0,0,-1.7024,-1.7028,-1.7062,-1.7063,-1.7065,-1.7088,-1.708,-1.7108,-1.7096,-1.7084,-1.7095,-1.7094,-1.7114,-1.7116,-1.7123,-1.7148,-1.7149,-1.7134,-1.7135,-1.7135,-1.7136,0,0,0,0,0,0,0,-1.7022,-1.7026,-1.7069,-1.7063,-1.7064,-1.7065,-1.7069,-1.7085,-1.71,-1.7085,-1.7085,-1.7089,-1.7114,-1.7121,-1.7124,-1.7149,-1.7134,-1.7135,-1.7136,-1.7137,-1.7188,-1.7189,0,0,0,0,0,0,-1.7019,-1.7025,-1.7068,-1.707,-1.7043,-1.7066,-1.707,-1.7081,-1.71,-1.7103,-1.709,-1.7089,-1.7119,-1.7122,-1.7125,-1.7146,-1.7135,-1.7137,-1.7138,-1.7188,-1.7188,-1.7189,0,0,0,0,0,0,-1.7018,-1.7023,-1.7067,-1.7047,-1.7053,-1.7068,-1.7079,-1.7081,-1.7089,-1.7104,-1.7106,-1.7094,-1.7119,-1.7123,-1.7141,-1.7147,-1.7138,-1.7139,-1.7187,-1.7188,-1.7188,-1.7188,0,0,0,0,0,0,-1.7016,-1.7022,-1.703,-1.7048,-1.7054,-1.7082,-1.708,-1.7082,-1.7092,-1.7092,-1.7109,-1.7111,-1.7119,-1.7138,-1.7142,-1.7149,-1.714,-1.7187,-1.7188,-1.7188,-1.7187,-1.7188,-1.7189,0,0,0,0,0,-1.7014,-1.7028,-1.703,-1.7035,-1.7064,-1.7083,-1.7086,-1.7095,-1.7092,-1.7099,-1.7109,-1.7111,-1.7146,-1.714,-1.7144,-1.7152,-1.7186,-1.7187,-1.7188,-1.7187,-1.7188,-1.7189,0,0,0,0,0,0,-1.7011,-1.7031,-1.7033,-1.7054,-1.7067,-1.7084,-1.7093,-1.7096,-1.711,-1.7109,-1.7119,-1.7122,-1.7139,-1.7147,-1.7141,-1.7169,-1.7166,-1.7168,-1.7163,-1.7164,-1.7165,-1.7163,-1.7142,0,0,0,0,0,-1.7012,-1.7027,-1.7043,-1.706,-1.7066,-1.7079,-1.7087,-1.7093,-1.7106,-1.7111,-1.7122,-1.7134,-1.7148,-1.7157,-1.717,-1.7188,-1.7192,-1.7196,-1.7197,-1.7197,-1.7199,-1.7208,-1.7209,-1.7192,-1.7192,-1.7192,0,0,-1.7016,-1.7029,-1.7037,-1.706,-1.707,-1.7084,-1.7083,-1.7098,-1.7108,-1.7113,-1.7131,-1.7139,-1.7153,-1.7171,-1.718,-1.7178,-1.7204,-1.7198,-1.7199,-1.72,-1.7209,-1.721,-1.7212,-1.7192,-1.7192,-1.7192,0,0,-1.703,-1.7041,-1.7056,-1.7066,-1.7082,-1.709,-1.7093,-1.711,-1.7116,-1.7133,-1.7137,-1.7149,-1.7172,-1.7182,-1.719,-1.7206,-1.7208,-1.721,-1.7214,-1.7223,-1.7224,-1.7226,-1.723,-1.7232,-1.7211,-1.7211,-1.7211,0,-1.7032,-1.7054,-1.7063,-1.7077,-1.7086,-1.7092,-1.7106,-1.7116,-1.7135,-1.714,-1.7139,-1.7168,-1.7178,-1.7197,-1.7201,-1.7208,-1.7211,-1.7208,-1.7224,-1.7225,-1.7226,-1.7231,-1.7233,-1.7211,-1.7211,-1.7211,-1.7211,0,-1.7055,-1.707,-1.708,-1.7098,-1.7108,-1.7123,-1.7133,-1.7142,-1.7146,-1.7154,-1.7171,-1.7183,-1.7198,-1.7203,-1.7208,-1.7223,-1.7222,-1.7222,-1.7219,-1.7228,-1.7232,-1.7234,-1.7211,-1.7211,-1.7211,-1.7211,0,0,-1.7068,-1.7091,-1.7094,-1.7102,-1.7119,-1.7131,-1.7144,-1.716,-1.7167,-1.718,-1.7191,-1.721,-1.7209,-1.7218,-1.7224,-1.7231,-1.7242,-1.723,-1.7231,-1.7231,-1.7258,-1.7258,-1.726,-1.7243,-1.7244,-1.7244,-1.7257,0,-1.7083,-1.7109,-1.7117,-1.7138,-1.7151,-1.7155,-1.7167,-1.7179,-1.7186,-1.7197,-1.7205,-1.7218,-1.7217,-1.7223,-1.723,-1.7239,-1.7247,-1.7238,-1.7253,-1.7253,-1.7248,-1.7262,-1.7262,-1.7274,-1.7258,-1.7259,-1.7259,0,-1.7104,-1.7117,-1.714,-1.7154,-1.716,-1.7171,-1.7184,-1.7196,-1.7208,-1.7213,-1.7222,-1.7227,-1.724,-1.7236,-1.7254,-1.7248,-1.7254,-1.7259,-1.7259,-1.7261,-1.7256,-1.7263,-1.7278,-1.7279,-1.7262,-1.7262,-1.7262,0,-1.711,-1.7133,-1.7149,-1.7156,-1.7174,-1.7181,-1.7188,-1.7201,-1.7209,-1.7221,-1.7226,-1.7239,-1.7246,-1.7256,-1.7263,-1.726,-1.728,-1.7277,-1.7283,-1.7283,-1.7287,-1.7287,-1.7302,-1.7292,-1.7292,-1.7292,-1.7292,0,-1.7126,-1.7139,-1.7152,-1.7162,-1.7176,-1.7185,-1.7199,-1.7206,-1.7217,-1.7228,-1.7232,-1.7242,-1.7251,-1.7262,-1.7268,-1.7281,-1.7284,-1.7288,-1.7289,-1.7287,-1.7287,-1.7291,-1.729,-1.7293,-1.7293,-1.7293,-1.7292,0,-1.7135,-1.7144,-1.7162,-1.7177,-1.7181,-1.7191,-1.7203,-1.7212,-1.722,-1.7233,-1.7236,-1.7247,-1.726,-1.7268,-1.7285,-1.7288,-1.7303,-1.7304,-1.7298,-1.7299,-1.7305,-1.7304,-1.7323,-1.7326,-1.7314,-1.7314,-1.7314,0,-1.7144,-1.7154,-1.717,-1.7178,-1.7185,-1.7198,-1.7206,-1.7214,-1.7223,-1.7237,-1.7244,-1.7257,-1.7268,-1.7288,-1.7297,-1.7308,-1.731,-1.7316,-1.7312,-1.7309,-1.7309,-1.7308,-1.7309,-1.7316,-1.7316,-1.7316,-1.7316,0,-1.7158,-1.7162,-1.7175,-1.7188,-1.7198,-1.7209,-1.722,-1.7225,-1.7236,-1.7244,-1.7258,-1.7266,-1.7282,-1.7295,-1.7307,-1.7314,-1.7317,-1.7318,-1.732,-1.7318,-1.7314,-1.7315,-1.73,-1.7317,-1.7317,-1.7317,-1.7317,-1.7317,-1.7167,-1.7176,-1.7188,-1.7201,-1.7211,-1.722,-1.7229,-1.7238,-1.7249,-1.7263,-1.7267,-1.728,-1.7291,-1.7309,-1.7315,-1.7325,-1.7325,-1.7328,-1.7328,-1.7329,-1.7329,-1.7312,-1.7328,-1.7328,-1.7328,-1.7328,-1.7328,0,-1.7181,-1.7189,-1.7201,-1.7216,-1.7226,-1.7228,-1.724,-1.7248,-1.726,-1.727,-1.7281,-1.7295,-1.7307,-1.7316,-1.7328,-1.7334,-1.7336,-1.7337,-1.7336,-1.7338,-1.7329,-1.7326,-1.7336,-1.7336,-1.7336,-1.7336,-1.7336,-1.7336,-1.719,-1.7204,-1.721,-1.7229,-1.7236,-1.725,-1.7256,-1.7265,-1.7273,-1.7289,-1.7299,-1.7305,-1.7315,-1.7328,-1.7338,-1.7341,-1.7344,-1.7345,-1.7348,-1.7339,-1.7339,-1.7338,-1.7335,-1.7346,-1.7346,-1.7356,-1.7356,-1.7356]}]]